Powrót do katalogu

STARLINK-37745

AktywnyŁącznośćSSO
NORAD 69232·PAYLOAD·🇺🇸 United States

Wystrzelony May 26, 2026 z Vandenberg Space Force Base

Loading…

Następne Przeloty (najbliższe 24 godziny)

TLE

ŚwieżeSource: CelesTrak SupGP

Epoka: Sep 14, 2026, 22:41 UTC

1 69232C 26115X   26257.94562500  .00044453  00000+0  13800-2 0  2570
2 69232  97.2830 274.1927 0001430  88.5246 275.5240 15.33414098    10

Śledź STARLINK-37745 w czasie rzeczywistym z AllMySat

Download on the App Store